contact:dominique.lefevre@mio.osupytheas.fr, maurice.libes@osupytheas.fr, didier.mallarino@osupytheas.fr
Project:EMSO http://www.emso-fr.org/EMSO-France
Depth: 2436.0 m
Title:EMSO Ligure Ouest : Data MII capteur MICROCAT
DateTime_Computer,Latitude,Longitude,Temperature,Conductivity,Pressure,DateTime_Instrument
DateTime_Computer,Latitude,Longitude,degC,S m-1,dbar,DateTime_Instrument
2021-08-03T00:01:35Z,42.805,6.029,13.2996,4.60002,2470.52,2021-8-03T02:02:53Z
2021-08-03T00:04:38Z,42.805,6.029,13.2996,4.60009,2470.483,2021-8-03T02:05:56Z
2021-08-03T00:07:41Z,42.805,6.029,13.2991,4.60002,2470.483,2021-8-03T02:08:59Z
2021-08-03T00:10:44Z,42.805,6.029,13.2987,4.60013,2470.483,2021-8-03T02:12:02Z
2021-08-03T00:13:47Z,42.805,6.029,13.2990,4.60008,2470.483,2021-8-03T02:15:05Z
2021-08-03T00:16:51Z,42.805,6.029,13.2990,4.60000,2470.507,2021-8-03T02:18:08Z
2021-08-03T00:19:54Z,42.805,6.029,13.2989,4.60007,2470.483,2021-8-03T02:21:11Z
2021-08-03T00:22:57Z,42.805,6.029,13.2991,4.60001,2470.483,2021-8-03T02:24:14Z
2021-08-03T00:26:00Z,42.805,6.029,13.2990,4.60005,2470.507,2021-8-03T02:27:17Z
2021-08-03T00:29:03Z,42.805,6.029,13.2992,4.59999,2470.46,2021-8-03T02:30:21Z
2021-08-03T00:32:06Z,42.805,6.029,13.2984,4.60000,2470.483,2021-8-03T02:33:24Z
2021-08-03T00:35:09Z,42.805,6.029,13.2990,4.59999,2470.483,2021-8-03T02:36:27Z
2021-08-03T00:38:12Z,42.805,6.029,13.2991,4.59999,2470.497,2021-8-03T02:39:30Z
2021-08-03T00:41:16Z,42.805,6.029,13.2987,4.60007,2470.497,2021-8-03T02:42:33Z
2021-08-03T00:44:19Z,42.805,6.029,13.2985,4.59998,2470.474,2021-8-03T02:45:36Z
2021-08-03T00:47:22Z,42.805,6.029,13.2986,4.60000,2470.497,2021-8-03T02:48:39Z
2021-08-03T00:50:25Z,42.805,6.029,13.2988,4.59999,2470.483,2021-8-03T02:51:42Z
2021-08-03T00:53:28Z,42.805,6.029,13.2991,4.59999,2470.497,2021-8-03T02:54:46Z
2021-08-03T00:56:31Z,42.805,6.029,13.2988,4.60005,2470.497,2021-8-03T02:57:49Z
2021-08-03T00:59:34Z,42.805,6.029,13.2982,4.59999,2470.52,2021-8-03T03:00:52Z
2021-08-03T01:02:37Z,42.805,6.029,13.2986,4.60000,2470.483,2021-8-03T03:03:55Z
2021-08-03T01:05:40Z,42.805,6.029,13.2989,4.60001,2470.483,2021-8-03T03:06:58Z
2021-08-03T01:08:44Z,42.805,6.029,13.2987,4.59997,2470.46,2021-8-03T03:10:01Z
2021-08-03T01:11:47Z,42.805,6.029,13.2987,4.60011,2470.52,2021-8-03T03:13:04Z
2021-08-03T01:14:50Z,42.805,6.029,13.2988,4.60000,2470.46,2021-8-03T03:16:07Z
2021-08-03T01:17:53Z,42.805,6.029,13.2985,4.60003,2470.507,2021-8-03T03:19:10Z
2021-08-03T01:20:56Z,42.805,6.029,13.2986,4.59998,2470.497,2021-8-03T03:22:14Z
2021-08-03T01:23:59Z,42.805,6.029,13.2986,4.59998,2470.52,2021-8-03T03:25:17Z
2021-08-03T01:27:02Z,42.805,6.029,13.2991,4.59999,2470.483,2021-8-03T03:28:20Z
2021-08-03T01:30:05Z,42.805,6.029,13.2983,4.59999,2470.497,2021-8-03T03:31:23Z
2021-08-03T01:33:09Z,42.805,6.029,13.2985,4.60000,2470.483,2021-8-03T03:34:26Z
2021-08-03T01:36:12Z,42.805,6.029,13.2986,4.60001,2470.52,2021-8-03T03:37:29Z
2021-08-03T01:39:15Z,42.805,6.029,13.2985,4.60000,2470.52,2021-8-03T03:40:32Z
2021-08-03T01:42:18Z,42.805,6.029,13.2992,4.59999,2470.544,2021-8-03T03:43:35Z
2021-08-03T01:45:21Z,42.805,6.029,13.2985,4.59999,2470.53,2021-8-03T03:46:39Z
2021-08-03T01:48:24Z,42.805,6.029,13.2991,4.59999,2470.483,2021-8-03T03:49:42Z
2021-08-03T01:51:27Z,42.805,6.029,13.2990,4.59999,2470.497,2021-8-03T03:52:45Z
2021-08-03T01:54:30Z,42.805,6.029,13.2990,4.60004,2470.497,2021-8-03T03:55:48Z
2021-08-03T01:57:33Z,42.805,6.029,13.2990,4.59999,2470.507,2021-8-03T03:58:51Z
2021-08-03T02:00:37Z,42.805,6.029,13.2986,4.60003,2470.483,2021-8-03T04:01:54Z
2021-08-03T02:03:40Z,42.805,6.029,13.2986,4.60006,2470.46,2021-8-03T04:04:57Z
2021-08-03T02:06:43Z,42.805,6.029,13.2990,4.60009,2470.52,2021-8-03T04:08:00Z
2021-08-03T02:09:46Z,42.805,6.029,13.2985,4.60000,2470.507,2021-8-03T04:11:03Z
2021-08-03T02:12:49Z,42.805,6.029,13.2990,4.60002,2470.52,2021-8-03T04:14:07Z
2021-08-03T02:15:52Z,42.805,6.029,13.2986,4.60003,2470.483,2021-8-03T04:17:10Z
2021-08-03T02:18:55Z,42.805,6.029,13.2986,4.59999,2470.497,2021-8-03T04:20:13Z
2021-08-03T02:21:58Z,42.805,6.029,13.2990,4.60006,2470.483,2021-8-03T04:23:16Z
2021-08-03T02:25:02Z,42.805,6.029,13.2989,4.60000,2470.483,2021-8-03T04:26:19Z
2021-08-03T02:28:05Z,42.805,6.029,13.2991,4.59999,2470.507,2021-8-03T04:29:22Z
2021-08-03T02:31:08Z,42.805,6.029,13.2989,4.60000,2470.544,2021-8-03T04:32:25Z
2021-08-03T02:34:11Z,42.805,6.029,13.2986,4.60001,2470.507,2021-8-03T04:35:28Z
2021-08-03T02:37:14Z,42.805,6.029,13.2990,4.60001,2470.483,2021-8-03T04:38:32Z
2021-08-03T02:40:17Z,42.805,6.029,13.2984,4.60000,2470.507,2021-8-03T04:41:35Z
2021-08-03T02:43:20Z,42.805,6.029,13.2990,4.59999,2470.52,2021-8-03T04:44:38Z
2021-08-03T02:46:23Z,42.805,6.029,13.2989,4.59999,2470.507,2021-8-03T04:47:41Z
2021-08-03T02:49:26Z,42.805,6.029,13.2985,4.59999,2470.507,2021-8-03T04:50:44Z
2021-08-03T02:52:30Z,42.805,6.029,13.2987,4.60006,2470.474,2021-8-03T04:53:47Z
2021-08-03T02:55:33Z,42.805,6.029,13.2989,4.60004,2470.52,2021-8-03T04:56:50Z
2021-08-03T02:58:36Z,42.805,6.029,13.2988,4.60002,2470.507,2021-8-03T04:59:53Z
2021-08-03T03:01:39Z,42.805,6.029,13.2986,4.60001,2470.474,2021-8-03T05:02:57Z
2021-08-03T03:04:42Z,42.805,6.029,13.2988,4.60001,2470.483,2021-8-03T05:06:00Z
2021-08-03T03:07:45Z,42.805,6.029,13.2992,4.60001,2470.483,2021-8-03T05:09:03Z
2021-08-03T03:10:48Z,42.805,6.029,13.2991,4.59999,2470.483,2021-8-03T05:12:06Z
2021-08-03T03:13:51Z,42.805,6.029,13.2986,4.59999,2470.497,2021-8-03T05:15:09Z
2021-08-03T03:16:55Z,42.805,6.029,13.2991,4.60006,2470.474,2021-8-03T05:18:12Z
2021-08-03T03:19:58Z,42.805,6.029,13.2988,4.60001,2470.497,2021-8-03T05:21:15Z
2021-08-03T03:23:01Z,42.805,6.029,13.2986,4.60009,2470.52,2021-8-03T05:24:18Z
2021-08-03T03:26:04Z,42.805,6.029,13.2989,4.60005,2470.52,2021-8-03T05:27:21Z
2021-08-03T03:29:07Z,42.805,6.029,13.2986,4.60007,2470.507,2021-8-03T05:30:24Z
2021-08-03T03:32:10Z,42.805,6.029,13.2986,4.60003,2470.497,2021-8-03T05:33:28Z
2021-08-03T03:35:13Z,42.805,6.029,13.2987,4.60003,2470.53,2021-8-03T05:36:31Z
2021-08-03T03:38:16Z,42.805,6.029,13.2989,4.60006,2470.493,2021-8-03T05:39:34Z
2021-08-03T03:41:19Z,42.805,6.029,13.2990,4.60001,2470.544,2021-8-03T05:42:37Z
2021-08-03T03:44:23Z,42.805,6.029,13.2991,4.59999,2470.497,2021-8-03T05:45:40Z
2021-08-03T03:47:26Z,42.805,6.029,13.2987,4.60000,2470.497,2021-8-03T05:48:43Z
2021-08-03T03:50:29Z,42.805,6.029,13.2989,4.59998,2470.52,2021-8-03T05:51:46Z
2021-08-03T03:53:32Z,42.805,6.029,13.2986,4.60008,2470.52,2021-8-03T05:54:49Z
2021-08-03T03:56:35Z,42.805,6.029,13.2988,4.60009,2470.507,2021-8-03T05:57:53Z
2021-08-03T03:59:38Z,42.805,6.029,13.2985,4.60008,2470.507,2021-8-03T06:00:56Z
2021-08-03T04:02:41Z,42.805,6.029,13.2986,4.60003,2470.483,2021-8-03T06:03:59Z
2021-08-03T04:05:44Z,42.805,6.029,13.2988,4.60006,2470.507,2021-8-03T06:07:02Z
2021-08-03T04:08:48Z,42.805,6.029,13.2983,4.60006,2470.52,2021-8-03T06:10:05Z
2021-08-03T04:11:51Z,42.805,6.029,13.2988,4.60001,2470.483,2021-8-03T06:13:08Z
2021-08-03T04:14:54Z,42.805,6.029,13.2990,4.60004,2470.507,2021-8-03T06:16:11Z
2021-08-03T04:17:57Z,42.805,6.029,13.2986,4.60013,2470.483,2021-8-03T06:19:14Z
2021-08-03T04:21:00Z,42.805,6.029,13.2987,4.60003,2470.497,2021-8-03T06:22:18Z
2021-08-03T04:24:03Z,42.805,6.029,13.2986,4.60005,2470.507,2021-8-03T06:25:21Z
2021-08-03T04:27:06Z,42.805,6.029,13.2988,4.60003,2470.52,2021-8-03T06:28:24Z
2021-08-03T04:30:09Z,42.805,6.029,13.2990,4.60011,2470.483,2021-8-03T06:31:27Z
2021-08-03T04:33:13Z,42.805,6.029,13.2983,4.60004,2470.497,2021-8-03T06:34:30Z
2021-08-03T04:36:16Z,42.805,6.029,13.2991,4.60003,2470.497,2021-8-03T06:37:33Z
2021-08-03T04:39:19Z,42.805,6.029,13.2999,4.60009,2470.483,2021-8-03T06:40:36Z
2021-08-03T04:42:22Z,42.805,6.029,13.3003,4.60011,2470.497,2021-8-03T06:43:39Z
2021-08-03T04:45:25Z,42.805,6.029,13.2999,4.60007,2470.507,2021-8-03T06:46:43Z
2021-08-03T04:48:28Z,42.805,6.029,13.3005,4.60050,2470.507,2021-8-03T06:49:46Z
2021-08-03T04:51:31Z,42.805,6.029,13.3010,4.60006,2470.46,2021-8-03T06:52:49Z
2021-08-03T04:54:34Z,42.805,6.029,13.3033,4.60024,2470.497,2021-8-03T06:55:52Z
2021-08-03T04:57:38Z,42.805,6.029,13.2991,4.60011,2470.483,2021-8-03T06:58:55Z
2021-08-03T05:00:41Z,42.805,6.029,13.2995,4.60006,2470.52,2021-8-03T07:01:58Z
2021-08-03T05:03:44Z,42.805,6.029,13.2991,4.60011,2470.507,2021-8-03T07:05:01Z
2021-08-03T05:06:47Z,42.805,6.029,13.2990,4.60011,2470.507,2021-8-03T07:08:04Z
2021-08-03T05:09:50Z,42.805,6.029,13.2991,4.60008,2470.483,2021-8-03T07:11:07Z
2021-08-03T05:12:53Z,42.805,6.029,13.3016,4.60011,2470.497,2021-8-03T07:14:11Z
2021-08-03T05:15:56Z,42.805,6.029,13.2992,4.60010,2470.483,2021-8-03T07:17:14Z
2021-08-03T05:18:59Z,42.805,6.029,13.2990,4.60003,2470.497,2021-8-03T07:20:17Z
2021-08-03T05:22:02Z,42.805,6.029,13.2985,4.60005,2470.46,2021-8-03T07:23:20Z
2021-08-03T05:25:05Z,42.805,6.029,13.2990,4.60002,2470.507,2021-8-03T07:26:23Z
2021-08-03T05:28:09Z,42.805,6.029,13.2985,4.60010,2470.437,2021-8-03T07:29:26Z
2021-08-03T05:31:12Z,42.805,6.029,13.2986,4.60016,2470.483,2021-8-03T07:32:29Z
2021-08-03T05:34:15Z,42.805,6.029,13.2988,4.60009,2470.46,2021-8-03T07:35:32Z
2021-08-03T05:37:18Z,42.805,6.029,13.2991,4.60006,2470.497,2021-8-03T07:38:35Z
2021-08-03T05:40:21Z,42.805,6.029,13.2990,4.60008,2470.483,2021-8-03T07:41:39Z
2021-08-03T05:43:24Z,42.805,6.029,13.2993,4.60005,2470.474,2021-8-03T07:44:42Z
2021-08-03T05:46:27Z,42.805,6.029,13.2998,4.60010,2470.474,2021-8-03T07:47:45Z
2021-08-03T05:49:30Z,42.805,6.029,13.3001,4.60010,2470.437,2021-8-03T07:50:48Z
2021-08-03T05:52:34Z,42.805,6.029,13.2992,4.60003,2470.497,2021-8-03T07:53:51Z
2021-08-03T05:55:37Z,42.805,6.029,13.2988,4.60003,2470.46,2021-8-03T07:56:54Z
2021-08-03T05:58:40Z,42.805,6.029,13.2983,4.60003,2470.474,2021-8-03T07:59:57Z
2021-08-03T06:01:43Z,42.805,6.029,13.2990,4.60011,2470.483,2021-8-03T08:03:00Z
2021-08-03T06:04:46Z,42.805,6.029,13.2987,4.60011,2470.46,2021-8-03T08:06:04Z
2021-08-03T06:07:49Z,42.805,6.029,13.3000,4.60022,2470.483,2021-8-03T08:09:07Z
2021-08-03T06:10:52Z,42.805,6.029,13.3067,4.60132,2470.474,2021-8-03T08:12:10Z
2021-08-03T06:13:55Z,42.805,6.029,13.3017,4.60027,2470.483,2021-8-03T08:15:13Z
2021-08-03T06:16:59Z,42.805,6.029,13.3000,4.60064,2470.497,2021-8-03T08:18:16Z
2021-08-03T06:20:02Z,42.805,6.029,13.2994,4.60031,2470.497,2021-8-03T08:21:19Z
2021-08-03T06:23:05Z,42.805,6.029,13.3027,4.60032,2470.483,2021-8-03T08:24:22Z
2021-08-03T06:26:08Z,42.805,6.029,13.2994,4.60043,2470.483,2021-8-03T08:27:25Z
2021-08-03T06:29:11Z,42.805,6.029,13.2988,4.60028,2470.483,2021-8-03T08:30:28Z
2021-08-03T06:32:14Z,42.805,6.029,13.2993,4.60021,2470.483,2021-8-03T08:33:32Z
2021-08-03T06:35:17Z,42.805,6.029,13.3026,4.60042,2470.497,2021-8-03T08:36:35Z
2021-08-03T06:38:20Z,42.805,6.029,13.3020,4.60048,2470.474,2021-8-03T08:39:38Z
2021-08-03T06:41:23Z,42.805,6.029,13.3024,4.60041,2470.46,2021-8-03T08:42:41Z
2021-08-03T06:44:27Z,42.805,6.029,13.3008,4.60028,2470.483,2021-8-03T08:45:44Z
2021-08-03T06:47:30Z,42.805,6.029,13.3017,4.60035,2470.474,2021-8-03T08:48:47Z
2021-08-03T06:50:33Z,42.805,6.029,13.3019,4.60023,2470.46,2021-8-03T08:51:50Z
2021-08-03T06:53:36Z,42.805,6.029,13.3029,4.60059,2470.483,2021-8-03T08:54:53Z
2021-08-03T06:56:39Z,42.805,6.029,13.3039,4.60031,2470.474,2021-8-03T08:57:57Z
2021-08-03T06:59:42Z,42.805,6.029,13.2992,4.60011,2470.474,2021-8-03T09:01:00Z
2021-08-03T07:02:45Z,42.805,6.029,13.3000,4.60027,2470.483,2021-8-03T09:04:03Z
2021-08-03T07:05:48Z,42.805,6.029,13.3020,4.60020,2470.46,2021-8-03T09:07:06Z
2021-08-03T07:08:51Z,42.805,6.029,13.3003,4.60003,2470.497,2021-8-03T09:10:09Z
2021-08-03T07:11:55Z,42.805,6.029,13.2996,4.60026,2470.46,2021-8-03T09:13:12Z
2021-08-03T07:14:58Z,42.805,6.029,13.3016,4.60042,2470.437,2021-8-03T09:16:15Z
2021-08-03T07:18:01Z,42.805,6.029,13.3015,4.60075,2470.46,2021-8-03T09:19:18Z
2021-08-03T07:21:04Z,42.805,6.029,13.3019,4.60051,2470.474,2021-8-03T09:22:22Z
2021-08-03T07:24:07Z,42.805,6.029,13.3018,4.60026,2470.45,2021-8-03T09:25:25Z
2021-08-03T07:27:10Z,42.805,6.029,13.3028,4.60042,2470.474,2021-8-03T09:28:28Z
2021-08-03T07:30:13Z,42.805,6.029,13.3043,4.60042,2470.446,2021-8-03T09:31:31Z
2021-08-03T07:33:16Z,42.805,6.029,13.3034,4.60044,2470.437,2021-8-03T09:34:34Z
2021-08-03T07:36:20Z,42.805,6.029,13.3026,4.60025,2470.45,2021-8-03T09:37:37Z
2021-08-03T07:39:23Z,42.805,6.029,13.3049,4.60024,2470.46,2021-8-03T09:40:40Z
2021-08-03T07:42:26Z,42.805,6.029,13.3028,4.60026,2470.46,2021-8-03T09:43:43Z
2021-08-03T07:45:29Z,42.805,6.029,13.3015,4.60024,2470.46,2021-8-03T09:46:46Z
2021-08-03T07:48:32Z,42.805,6.029,13.3011,4.60062,2470.474,2021-8-03T09:49:50Z
2021-08-03T07:51:35Z,42.805,6.029,13.3015,4.60051,2470.45,2021-8-03T09:52:53Z
2021-08-03T07:54:38Z,42.805,6.029,13.3010,4.60033,2470.413,2021-8-03T09:55:56Z
2021-08-03T07:57:41Z,42.805,6.029,13.3014,4.60075,2470.427,2021-8-03T09:58:59Z
2021-08-03T08:00:45Z,42.805,6.029,13.3006,4.60069,2470.474,2021-8-03T10:02:02Z
2021-08-03T08:03:48Z,42.805,6.029,13.3009,4.60039,2470.45,2021-8-03T10:05:05Z
2021-08-03T08:06:51Z,42.805,6.029,13.3003,4.60054,2470.427,2021-8-03T10:08:08Z
2021-08-03T08:09:54Z,42.805,6.029,13.3027,4.60050,2470.45,2021-8-03T10:11:11Z
2021-08-03T08:12:57Z,42.805,6.029,13.3011,4.60084,2470.45,2021-8-03T10:14:15Z
2021-08-03T08:16:00Z,42.805,6.029,13.3009,4.60079,2470.437,2021-8-03T10:17:18Z
2021-08-03T08:19:03Z,42.805,6.029,13.3014,4.60083,2470.437,2021-8-03T10:20:21Z
2021-08-03T08:22:06Z,42.805,6.029,13.3004,4.60108,2470.45,2021-8-03T10:23:24Z
2021-08-03T08:25:10Z,42.805,6.029,13.3014,4.60074,2470.437,2021-8-03T10:26:27Z
2021-08-03T08:28:13Z,42.805,6.029,13.3030,4.60067,2470.413,2021-8-03T10:29:30Z
2021-08-03T08:31:16Z,42.805,6.029,13.3029,4.60017,2470.413,2021-8-03T10:32:33Z
2021-08-03T08:34:19Z,42.805,6.029,13.3011,4.60072,2470.45,2021-8-03T10:35:36Z
2021-08-03T08:37:22Z,42.805,6.029,13.3019,4.60064,2470.427,2021-8-03T10:38:40Z
2021-08-03T08:40:25Z,42.805,6.029,13.3017,4.60064,2470.413,2021-8-03T10:41:43Z
2021-08-03T08:43:28Z,42.805,6.029,13.3007,4.60092,2470.437,2021-8-03T10:44:46Z
2021-08-03T08:46:31Z,42.805,6.029,13.3017,4.60083,2470.404,2021-8-03T10:47:49Z
2021-08-03T08:49:34Z,42.805,6.029,13.3004,4.60086,2470.427,2021-8-03T10:50:52Z
2021-08-03T08:52:38Z,42.805,6.029,13.3015,4.60052,2470.427,2021-8-03T10:53:55Z
2021-08-03T08:55:41Z,42.805,6.029,13.3024,4.60072,2470.45,2021-8-03T10:56:58Z
2021-08-03T08:58:44Z,42.805,6.029,13.3025,4.60075,2470.427,2021-8-03T11:00:01Z
2021-08-03T09:01:47Z,42.805,6.029,13.3006,4.60058,2470.45,2021-8-03T11:03:05Z
2021-08-03T09:04:50Z,42.805,6.029,13.3009,4.60070,2470.413,2021-8-03T11:06:08Z
2021-08-03T09:07:53Z,42.805,6.029,13.3042,4.60099,2470.413,2021-8-03T11:09:11Z
2021-08-03T09:10:56Z,42.805,6.029,13.3026,4.60132,2470.413,2021-8-03T11:12:14Z
2021-08-03T09:13:59Z,42.805,6.029,13.3031,4.60038,2470.413,2021-8-03T11:15:17Z
2021-08-03T09:17:03Z,42.805,6.029,13.3043,4.60041,2470.413,2021-8-03T11:18:20Z
2021-08-03T09:20:06Z,42.805,6.029,13.3039,4.60042,2470.39,2021-8-03T11:21:23Z
2021-08-03T09:23:09Z,42.805,6.029,13.3011,4.60092,2470.437,2021-8-03T11:24:26Z
2021-08-03T09:26:12Z,42.805,6.029,13.3026,4.60077,2470.427,2021-8-03T11:27:30Z
2021-08-03T09:29:15Z,42.805,6.029,13.3025,4.60049,2470.427,2021-8-03T11:30:33Z
2021-08-03T09:32:18Z,42.805,6.029,13.3061,4.60041,2470.45,2021-8-03T11:33:36Z
2021-08-03T09:35:21Z,42.805,6.029,13.3051,4.60057,2470.404,2021-8-03T11:36:39Z
2021-08-03T09:38:25Z,42.805,6.029,13.3063,4.60064,2470.404,2021-8-03T11:39:42Z
2021-08-03T09:41:28Z,42.805,6.029,13.3054,4.60112,2470.404,2021-8-03T11:42:45Z
2021-08-03T09:44:31Z,42.805,6.029,13.3063,4.60079,2470.437,2021-8-03T11:45:48Z
2021-08-03T09:47:34Z,42.805,6.029,13.3067,4.60028,2470.437,2021-8-03T11:48:51Z
2021-08-03T09:50:37Z,42.805,6.029,13.3078,4.60032,2470.404,2021-8-03T11:51:55Z
2021-08-03T09:53:40Z,42.805,6.029,13.3073,4.60041,2470.39,2021-8-03T11:54:58Z
2021-08-03T09:56:43Z,42.805,6.029,13.3051,4.60055,2470.427,2021-8-03T11:58:01Z
2021-08-03T09:59:46Z,42.805,6.029,13.3023,4.60062,2470.413,2021-8-03T12:01:04Z
2021-08-03T10:02:49Z,42.805,6.029,13.3047,4.60033,2470.45,2021-8-03T12:04:07Z
2021-08-03T10:05:53Z,42.805,6.029,13.3070,4.60056,2470.45,2021-8-03T12:07:10Z
2021-08-03T10:08:56Z,42.805,6.029,13.3029,4.60049,2470.404,2021-8-03T12:10:13Z
2021-08-03T10:11:59Z,42.805,6.029,13.3055,4.60069,2470.427,2021-8-03T12:13:16Z
2021-08-03T10:15:02Z,42.805,6.029,13.3053,4.60021,2470.39,2021-8-03T12:16:20Z
2021-08-03T10:18:05Z,42.805,6.029,13.3048,4.60041,2470.413,2021-8-03T12:19:23Z
2021-08-03T10:21:08Z,42.805,6.029,13.3017,4.60019,2470.413,2021-8-03T12:22:26Z
2021-08-03T10:24:11Z,42.805,6.029,13.3024,4.60054,2470.413,2021-8-03T12:25:29Z
2021-08-03T10:27:14Z,42.805,6.029,13.3063,4.60026,2470.45,2021-8-03T12:28:32Z
2021-08-03T10:30:18Z,42.805,6.029,13.3031,4.60052,2470.46,2021-8-03T12:31:35Z
2021-08-03T10:33:21Z,42.805,6.029,13.3012,4.60017,2470.413,2021-8-03T12:34:38Z
2021-08-03T10:36:24Z,42.805,6.029,13.3051,4.60021,2470.413,2021-8-03T12:37:41Z
2021-08-03T10:39:27Z,42.805,6.029,13.3056,4.60017,2470.413,2021-8-03T12:40:44Z
2021-08-03T10:42:30Z,42.805,6.029,13.3024,4.60029,2470.427,2021-8-03T12:43:48Z
2021-08-03T10:45:33Z,42.805,6.029,13.3033,4.60052,2470.404,2021-8-03T12:46:51Z
2021-08-03T10:48:36Z,42.805,6.029,13.3011,4.60054,2470.45,2021-8-03T12:49:54Z
2021-08-03T10:51:39Z,42.805,6.029,13.3012,4.60043,2470.413,2021-8-03T12:52:57Z
2021-08-03T10:54:43Z,42.805,6.029,13.3034,4.60024,2470.404,2021-8-03T12:56:00Z
2021-08-03T10:57:46Z,42.805,6.029,13.3031,4.60026,2470.45,2021-8-03T12:59:03Z
2021-08-03T11:00:49Z,42.805,6.029,13.3044,4.60038,2470.413,2021-8-03T13:02:06Z
2021-08-03T11:03:52Z,42.805,6.029,13.3036,4.60053,2470.437,2021-8-03T13:05:09Z
2021-08-03T11:06:55Z,42.805,6.029,13.3056,4.60037,2470.413,2021-8-03T13:08:13Z
2021-08-03T11:09:58Z,42.805,6.029,13.3037,4.60029,2470.413,2021-8-03T13:11:16Z
2021-08-03T11:13:01Z,42.805,6.029,13.3054,4.60040,2470.427,2021-8-03T13:14:19Z
2021-08-03T11:16:04Z,42.805,6.029,13.3057,4.60044,2470.413,2021-8-03T13:17:22Z
2021-08-03T11:19:08Z,42.805,6.029,13.3043,4.60031,2470.413,2021-8-03T13:20:25Z
2021-08-03T11:22:11Z,42.805,6.029,13.3046,4.60051,2470.427,2021-8-03T13:23:28Z
2021-08-03T11:25:14Z,42.805,6.029,13.3033,4.60043,2470.39,2021-8-03T13:26:31Z
2021-08-03T11:28:17Z,42.805,6.029,13.3067,4.60078,2470.413,2021-8-03T13:29:34Z
2021-08-03T11:31:20Z,42.805,6.029,13.3054,4.60039,2470.437,2021-8-03T13:32:38Z
2021-08-03T11:34:23Z,42.805,6.029,13.3054,4.60051,2470.427,2021-8-03T13:35:41Z
2021-08-03T11:37:26Z,42.805,6.029,13.3041,4.60038,2470.39,2021-8-03T13:38:44Z
2021-08-03T11:40:29Z,42.805,6.029,13.3034,4.60042,2470.474,2021-8-03T13:41:47Z
2021-08-03T11:43:33Z,42.805,6.029,13.3033,4.60041,2470.437,2021-8-03T13:44:50Z
2021-08-03T11:46:36Z,42.805,6.029,13.3056,4.60039,2470.413,2021-8-03T13:47:53Z
2021-08-03T11:49:39Z,42.805,6.029,13.3072,4.60031,2470.404,2021-8-03T13:50:56Z
2021-08-03T11:52:42Z,42.805,6.029,13.3051,4.60036,2470.437,2021-8-03T13:53:59Z
2021-08-03T11:55:45Z,42.805,6.029,13.3043,4.60044,2470.45,2021-8-03T13:57:03Z
2021-08-03T11:58:48Z,42.805,6.029,13.3061,4.60040,2470.45,2021-8-03T14:00:06Z
2021-08-03T12:01:51Z,42.805,6.029,13.3060,4.60032,2470.427,2021-8-03T14:03:09Z
2021-08-03T12:04:54Z,42.805,6.029,13.3046,4.60038,2470.45,2021-8-03T14:06:12Z
2021-08-03T12:07:57Z,42.805,6.029,13.3071,4.60034,2470.437,2021-8-03T14:09:15Z
2021-08-03T12:11:01Z,42.805,6.029,13.3054,4.60032,2470.437,2021-8-03T14:12:18Z
2021-08-03T12:14:04Z,42.805,6.029,13.3066,4.60031,2470.474,2021-8-03T14:15:21Z
2021-08-03T12:17:07Z,42.805,6.029,13.3046,4.60033,2470.474,2021-8-03T14:18:24Z
2021-08-03T12:20:10Z,42.805,6.029,13.3052,4.60038,2470.474,2021-8-03T14:21:28Z
2021-08-03T12:23:13Z,42.805,6.029,13.3060,4.60045,2470.45,2021-8-03T14:24:31Z
2021-08-03T12:26:16Z,42.805,6.029,13.3068,4.60050,2470.46,2021-8-03T14:27:34Z
2021-08-03T12:29:19Z,42.805,6.029,13.3040,4.60072,2470.474,2021-8-03T14:30:37Z
2021-08-03T12:32:23Z,42.805,6.029,13.3055,4.60039,2470.474,2021-8-03T14:33:40Z
2021-08-03T12:35:26Z,42.805,6.029,13.3076,4.60052,2470.46,2021-8-03T14:36:43Z
2021-08-03T12:38:29Z,42.805,6.029,13.3073,4.60057,2470.427,2021-8-03T14:39:46Z
2021-08-03T12:41:32Z,42.805,6.029,13.3072,4.60039,2470.437,2021-8-03T14:42:49Z
2021-08-03T12:44:35Z,42.805,6.029,13.3073,4.60034,2470.46,2021-8-03T14:45:53Z
2021-08-03T12:47:38Z,42.805,6.029,13.3062,4.60034,2470.474,2021-8-03T14:48:56Z
2021-08-03T12:50:41Z,42.805,6.029,13.3067,4.60041,2470.46,2021-8-03T14:51:59Z
2021-08-03T12:53:44Z,42.805,6.029,13.3024,4.60049,2470.45,2021-8-03T14:55:02Z
2021-08-03T12:56:47Z,42.805,6.029,13.3037,4.60069,2470.474,2021-8-03T14:58:05Z
2021-08-03T12:59:51Z,42.805,6.029,13.3038,4.60049,2470.497,2021-8-03T15:01:08Z
2021-08-03T13:02:54Z,42.805,6.029,13.3043,4.60054,2470.497,2021-8-03T15:04:11Z
2021-08-03T13:05:57Z,42.805,6.029,13.3030,4.60049,2470.474,2021-8-03T15:07:14Z
2021-08-03T13:09:00Z,42.805,6.029,13.3044,4.60044,2470.46,2021-8-03T15:10:17Z
2021-08-03T13:12:03Z,42.805,6.029,13.3037,4.60039,2470.46,2021-8-03T15:13:21Z
2021-08-03T13:15:06Z,42.805,6.029,13.3000,4.60037,2470.474,2021-8-03T15:16:24Z
2021-08-03T13:18:09Z,42.805,6.029,13.2989,4.60062,2470.497,2021-8-03T15:19:27Z
2021-08-03T13:21:12Z,42.805,6.029,13.2986,4.60074,2470.497,2021-8-03T15:22:30Z
2021-08-03T13:24:16Z,42.805,6.029,13.2990,4.60088,2470.507,2021-8-03T15:25:33Z
2021-08-03T13:27:19Z,42.805,6.029,13.2984,4.60064,2470.46,2021-8-03T15:28:36Z
2021-08-03T13:30:22Z,42.805,6.029,13.2990,4.60049,2470.483,2021-8-03T15:31:39Z
2021-08-03T13:33:25Z,42.805,6.029,13.2990,4.60038,2470.507,2021-8-03T15:34:42Z
2021-08-03T13:36:28Z,42.805,6.029,13.2991,4.60035,2470.497,2021-8-03T15:37:46Z
2021-08-03T13:39:31Z,42.805,6.029,13.3058,4.60032,2470.497,2021-8-03T15:40:49Z
2021-08-03T13:42:34Z,42.805,6.029,13.2990,4.60044,2470.497,2021-8-03T15:43:52Z
2021-08-03T13:45:37Z,42.805,6.029,13.2993,4.60046,2470.497,2021-8-03T15:46:55Z
2021-08-03T13:48:41Z,42.805,6.029,13.2990,4.60024,2470.507,2021-8-03T15:49:58Z
2021-08-03T13:51:44Z,42.805,6.029,13.2990,4.60029,2470.483,2021-8-03T15:53:01Z
2021-08-03T13:54:47Z,42.805,6.029,13.2989,4.60036,2470.497,2021-8-03T15:56:04Z
2021-08-03T13:57:50Z,42.805,6.029,13.2984,4.60025,2470.46,2021-8-03T15:59:07Z
2021-08-03T14:00:53Z,42.805,6.029,13.2986,4.60017,2470.507,2021-8-03T16:02:11Z
2021-08-03T14:03:56Z,42.805,6.029,13.2990,4.60013,2470.52,2021-8-03T16:05:14Z
2021-08-03T14:06:59Z,42.805,6.029,13.2989,4.60019,2470.497,2021-8-03T16:08:17Z
2021-08-03T14:10:02Z,42.805,6.029,13.2988,4.60016,2470.544,2021-8-03T16:11:20Z
2021-08-03T14:13:05Z,42.805,6.029,13.2991,4.60017,2470.483,2021-8-03T16:14:23Z
2021-08-03T14:16:09Z,42.805,6.029,13.2987,4.60011,2470.53,2021-8-03T16:17:26Z
2021-08-03T14:19:12Z,42.805,6.029,13.2986,4.60014,2470.52,2021-8-03T16:20:29Z
2021-08-03T14:22:15Z,42.805,6.029,13.2992,4.60016,2470.507,2021-8-03T16:23:32Z
2021-08-03T14:25:18Z,42.805,6.029,13.2984,4.60011,2470.483,2021-8-03T16:26:36Z
2021-08-03T14:28:21Z,42.805,6.029,13.2986,4.60017,2470.507,2021-8-03T16:29:39Z
2021-08-03T14:31:24Z,42.805,6.029,13.2986,4.60010,2470.507,2021-8-03T16:32:42Z
2021-08-03T14:34:27Z,42.805,6.029,13.2988,4.60015,2470.52,2021-8-03T16:35:45Z
2021-08-03T14:37:31Z,42.805,6.029,13.2991,4.60014,2470.507,2021-8-03T16:38:48Z
2021-08-03T14:40:34Z,42.805,6.029,13.2986,4.60009,2470.52,2021-8-03T16:41:51Z
2021-08-03T14:43:37Z,42.805,6.029,13.2989,4.60004,2470.544,2021-8-03T16:44:54Z
2021-08-03T14:46:40Z,42.805,6.029,13.2986,4.60009,2470.507,2021-8-03T16:47:57Z
2021-08-03T14:49:43Z,42.805,6.029,13.2990,4.60011,2470.53,2021-8-03T16:51:01Z
2021-08-03T14:52:46Z,42.805,6.029,13.2990,4.60008,2470.507,2021-8-03T16:54:04Z
2021-08-03T14:55:49Z,42.805,6.029,13.2990,4.60011,2470.52,2021-8-03T16:57:07Z
2021-08-03T14:58:52Z,42.805,6.029,13.2990,4.60009,2470.52,2021-8-03T17:00:10Z
2021-08-03T15:01:55Z,42.805,6.029,13.2990,4.60009,2470.507,2021-8-03T17:03:13Z
2021-08-03T15:04:59Z,42.805,6.029,13.2987,4.60003,2470.53,2021-8-03T17:06:16Z
2021-08-03T15:08:02Z,42.805,6.029,13.2987,4.60008,2470.507,2021-8-03T17:09:19Z
2021-08-03T15:11:05Z,42.805,6.029,13.2986,4.60010,2470.544,2021-8-03T17:12:22Z